| time (UTC) | temp F | wind direction | speed MPH | gust MPH | rain 1hr in | rain 24hr in | rain mn in | humidity % | barometer mb |
| 20260831211520 | 78 | 104 | 1.0 | 8.0 | 0.00 | 0.00 | 0.00 | 49 | 1011.4 |
| 20260831210021 | 78 | 156 | 0.0 | 6.0 | 0.00 | 0.00 | 0.00 | 49 | 1011.6 |
| 20260831204515 | 77 | 91 | 0.0 | 4.0 | 0.00 | 0.00 | 0.00 | 51 | 1011.7 |
| 20260831203014 | 76 | 114 | 1.0 | 6.0 | 0.00 | 0.00 | 0.00 | 51 | 1011.8 |
| 20260831201518 | 75 | 80 | 0.0 | 6.0 | 0.00 | 0.00 | 0.00 | 52 | 1011.9 |
| 20260831200012 | 75 | 278 | 0.0 | 6.0 | 0.00 | 0.00 | 0.00 | 53 | 1012.1 |
| 20260831194514 | 74 | 63 | 1.0 | 9.0 | 0.00 | 0.00 | 0.00 | 53 | 1012.2 |
| 20260831193011 | 75 | 153 | 0.0 | 7.0 | 0.00 | 0.00 | 0.00 | 54 | 1012.4 |
| 20260831191523 | 74 | 81 | 2.0 | 7.0 | 0.00 | 0.00 | 0.00 | 54 | 1012.4 |
| 20260831190006 | 73 | 120 | 0.0 | 9.0 | 0.00 | 0.00 | 0.00 | 55 | 1012.4 |
| 20260831184504 | 73 | 115 | 0.0 | 5.0 | 0.00 | 0.00 | 0.00 | 57 | 1012.4 |
| 20260831183006 | 72 | 340 | 1.0 | 5.0 | 0.00 | 0.00 | 0.00 | 57 | 1012.4 |
| 20260831181502 | 71 | 200 | 0.0 | 7.0 | 0.00 | 0.00 | 0.00 | 57 | 1012.3 |
| 20260831174601 | 70 | 79 | 0.0 | 9.0 | 0.00 | 0.00 | 0.00 | 59 | 1012.3 |
| 20260831173127 | 69 | 119 | 0.0 | 5.0 | 0.00 | 0.00 | 0.00 | 61 | 1012.3 |
| 20260831171553 | 68 | 99 | 1.0 | 6.0 | 0.00 | 0.00 | 0.00 | 62 | 1012.3 |
| 20260831170052 | 66 | 75 | 2.0 | 9.0 | 0.00 | 0.00 | 0.00 | 65 | 1012.2 |
| 20260831164604 | 66 | 122 | 1.0 | 8.0 | 0.00 | 0.00 | 0.00 | 66 | 1012.3 |
| 20260831163054 | 64 | 99 | 1.0 | 7.0 | 0.00 | 0.00 | 0.00 | 69 | 1012.3 |
| 20260831161549 | 63 | 119 | 0.0 | 6.0 | 0.00 | 0.00 | 0.00 | 71 | 1012.2 |
| 20260831160052 | 62 | 96 | 2.0 | 5.0 | 0.00 | 0.00 | 0.00 | 73 | 1012.4 |
| 20260831154547 | 61 | 89 | 2.0 | 5.0 | 0.00 | 0.00 | 0.00 | 76 | 1012.3 |
| 20260831153047 | 59 | 120 | 1.0 | 5.0 | 0.00 | 0.00 | 0.00 | 78 | 1012.3 |
| 20260831151546 | 59 | 110 | 0.0 | 4.0 | 0.00 | 0.00 | 0.00 | 79 | 1012.3 |
| 20260831150044 | 58 | 182 | 2.0 | 5.0 | 0.00 | 0.00 | 0.00 | 80 | 1012.1 |
| 20260831144547 | 57 | 124 | 2.0 | 5.0 | 0.00 | 0.00 | 0.00 | 81 | 1012.0 |
| 20260831143040 | 57 | 139 | 0.0 | 2.0 | 0.00 | 0.00 | 0.00 | 81 | 1011.8 |
| 20260831141537 | 57 | 144 | 0.0 | 2.0 | 0.00 | 0.00 | 0.00 | 82 | 1011.7 |
| 20260831140037 | 57 | 124 | 0.0 | 2.0 | 0.00 | 0.00 | 0.00 | 81 | 1011.4 |
| 20260831134533 | 57 | 118 | 0.0 | 3.0 | 0.00 | 0.00 | 0.00 | 81 | 1011.3 |
| 20260831133035 | 57 | 89 | 1.0 | 5.0 | 0.00 | 0.00 | 0.00 | 79 | 1011.1 |
| 20260831131527 | 58 | 134 | 0.0 | 1.0 | 0.00 | 0.00 | 0.00 | 78 | 1010.9 |
| 20260831130025 | 58 | 144 | 0.0 | 3.0 | 0.00 | 0.00 | 0.00 | 77 | 1010.7 |
| 20260831124537 | 59 | 121 | 1.0 | 4.0 | 0.00 | 0.00 | 0.00 | 75 | 1010.6 |
| 20260831123020 | 59 | 119 | 1.0 | 6.0 | 0.00 | 0.00 | 0.00 | 74 | 1010.6 |
| 20260831121519 | 59 | 117 | 0.0 | 3.0 | 0.00 | 0.00 | 0.00 | 73 | 1010.6 |
| 20260831120016 | 60 | 116 | 0.0 | 3.0 | 0.00 | 0.00 | 0.00 | 71 | 1010.5 |
| 20260831114532 | 60 | 103 | 0.0 | 0.0 | 0.00 | 0.00 | 0.00 | 70 | 1010.3 |
| 20260831113012 | 61 | 91 | 0.0 | 0.0 | 0.00 | 0.00 | 0.00 | 70 | 1010.3 |
| 20260831111509 | 61 | 115 | 0.0 | 2.0 | 0.00 | 0.00 | 0.00 | 69 | 1010.3 |
| 20260831110008 | 61 | 127 | 0.0 | 3.0 | 0.00 | 0.00 | 0.00 | 69 | 1010.4 |
| 20260831104507 | 62 | 119 | 0.0 | 3.0 | 0.00 | 0.00 | 0.00 | 68 | 1010.5 |
| 20260831103003 | 62 | 115 | 1.0 | 4.0 | 0.00 | 0.00 | 0.00 | 68 | 1010.4 |
| 20260831101502 | 62 | 110 | 0.0 | 0.0 | 0.00 | 0.00 | 0.00 | 69 | 1010.3 |
| 20260831100059 | 62 | 106 | 0.0 | 0.0 | 0.00 | 0.00 | 0.00 | 68 | 1010.2 |
| 20260831094608 | 63 | 130 | 0.0 | 0.0 | 0.00 | 0.00 | 0.00 | 67 | 1010.1 |
| 20260831093055 | 63 | 113 | 0.0 | 0.0 | 0.00 | 0.00 | 0.00 | 67 | 1010.1 |
| 20260831091555 | 64 | 111 | 0.0 | 0.0 | 0.00 | 0.00 | 0.00 | 65 | 1010.2 |
| 20260831090056 | 64 | 111 | 0.0 | 0.0 | 0.00 | 0.00 | 0.00 | 64 | 1010.2 |
| 20260831084546 | 65 | 122 | 0.0 | 0.0 | 0.00 | 0.00 | 0.00 | 64 | 1010.2 |
| 20260831083047 | 66 | 134 | 0.0 | 3.0 | 0.00 | 0.00 | 0.00 | 63 | 1010.2 |
| 20260831081541 | 66 | 153 | 0.0 | 2.0 | 0.00 | 0.00 | 0.00 | 62 | 1010.2 |
| 20260831080038 | 67 | 92 | 1.0 | 5.0 | 0.00 | 0.00 | 0.00 | 62 | 1010.2 |
| 20260831074539 | 68 | 128 | 0.0 | 7.0 | 0.00 | 0.00 | 0.00 | 61 | 1010.2 |
| 20260831073033 | 68 | 117 | 2.0 | 7.0 | 0.00 | 0.00 | 0.00 | 61 | 1010.1 |
| 20260831071531 | 68 | 75 | 2.0 | 6.0 | 0.00 | 0.00 | 0.00 | 61 | 1010.1 |
| 20260831070031 | 68 | 136 | 0.0 | 3.0 | 0.00 | 0.00 | 0.00 | 61 | 1010.1 |
| 20260831064527 | 68 | 127 | 1.0 | 6.0 | 0.00 | 0.00 | 0.00 | 61 | 1010.2 |
| 20260831063027 | 69 | 84 | 2.0 | 6.0 | 0.00 | 0.00 | 0.00 | 60 | 1010.2 |
| 20260831061526 | 70 | 94 | 1.0 | 6.0 | 0.00 | 0.00 | 0.00 | 59 | 1010.3 |
| 20260831060025 | 70 | 151 | 0.0 | 4.0 | 0.00 | 0.00 | 0.00 | 59 | 1010.3 |
| 20260831054626 | 71 | 108 | 0.0 | 6.0 | 0.00 | 0.00 | 0.00 | 58 | 1010.3 |
| 20260831053027 | 71 | 94 | 1.0 | 3.0 | 0.00 | 0.00 | 0.00 | 56 | 1010.2 |
| 20260831051524 | 72 | 122 | 0.0 | 4.0 | 0.00 | 0.00 | 0.00 | 55 | 1010.3 |
| 20260831050039 | 72 | 136 | 2.0 | 7.0 | 0.00 | 0.00 | 0.00 | 55 | 1010.2 |
| 20260831044521 | 74 | 101 | 1.0 | 5.0 | 0.00 | 0.00 | 0.00 | 52 | 1010.1 |
| 20260831043022 | 75 | 142 | 0.0 | 5.0 | 0.00 | 0.00 | 0.00 | 48 | 1010.0 |
| 20260831041521 | 76 | 139 | 0.0 | 4.0 | 0.00 | 0.00 | 0.00 | 45 | 1009.8 |
| 20260831040025 | 77 | 129 | 0.0 | 2.0 | 0.00 | 0.00 | 0.00 | 45 | 1009.6 |
| 20260831034519 | 78 | 184 | 0.0 | 2.0 | 0.00 | 0.00 | 0.00 | 44 | 1009.5 |
| 20260831033020 | 79 | 92 | 0.0 | 1.0 | 0.00 | 0.00 | 0.00 | 42 | 1009.3 |
| 20260831031525 | 80 | 130 | 0.0 | 0.0 | 0.00 | 0.00 | 0.00 | 40 | 1009.1 |
| 20260831030017 | 82 | 131 | 0.0 | 3.0 | 0.00 | 0.00 | 0.00 | 40 | 1009.1 |
| 20260831024520 | 83 | 166 | 1.0 | 5.0 | 0.00 | 0.00 | 0.00 | 38 | 1009.0 |
| 20260831023015 | 85 | 162 | 0.0 | 8.0 | 0.00 | 0.00 | 0.00 | 37 | 1008.8 |
| 20260831021515 | 89 | 110 | 0.0 | 0.0 | 0.00 | 0.00 | 0.00 | 32 | 1008.8 |
| 20260831020014 | 89 | 168 | 0.0 | 0.0 | 0.00 | 0.00 | 0.00 | 32 | 1008.8 |
| 20260831014514 | 90 | 260 | 0.0 | 1.0 | 0.00 | 0.00 | 0.00 | 32 | 1008.8 |
| 20260831013012 | 90 | 246 | 0.0 | 1.0 | 0.00 | 0.00 | 0.00 | 31 | 1008.8 |
| 20260831011516 | 90 | 227 | 0.0 | 2.0 | 0.00 | 0.00 | 0.00 | 31 | 1009.0 |
| 20260831010026 | 91 | 259 | 0.0 | 1.0 | 0.00 | 0.00 | 0.00 | 31 | 1009.0 |
| 20260831004506 | 90 | 179 | 0.0 | 2.0 | 0.00 | 0.00 | 0.00 | 30 | 1009.0 |
| 20260831003005 | 91 | 93 | 0.0 | 2.0 | 0.00 | 0.00 | 0.00 | 29 | 1009.1 |
| 20260831001503 | 90 | 38 | 1.0 | 4.0 | 0.00 | 0.00 | 0.00 | 30 | 1009.2 |
| 20260831000002 | 90 | 278 | 0.0 | 1.0 | 0.00 | 0.00 | 0.00 | 30 | 1009.3 |
| 20260830234611 | 90 | 247 | 0.0 | 5.0 | 0.00 | 0.00 | 0.00 | 29 | 1009.4 |
| 20260830233059 | 90 | 247 | 0.0 | 3.0 | 0.00 | 0.00 | 0.00 | 29 | 1009.6 |
| 20260830231558 | 90 | 235 | 0.0 | 3.0 | 0.00 | 0.00 | 0.00 | 30 | 1009.7 |
| 20260830230100 | 88 | 280 | 0.0 | 4.0 | 0.00 | 0.00 | 0.00 | 31 | 1009.9 |
| 20260830224551 | 89 | 302 | 1.0 | 5.0 | 0.00 | 0.00 | 0.00 | 31 | 1010.0 |
| 20260830223048 | 89 | 273 | 1.0 | 4.0 | 0.00 | 0.00 | 0.00 | 31 | 1010.3 |
| 20260830221545 | 88 | 296 | 0.0 | 4.0 | 0.00 | 0.00 | 0.00 | 33 | 1010.4 |
| 20260830220042 | 87 | 270 | 1.0 | 9.0 | 0.00 | 0.00 | 0.00 | 34 | 1010.7 |
| 20260830214540 | 87 | 314 | 1.0 | 4.0 | 0.00 | 0.00 | 0.00 | 34 | 1010.9 |
| 20260830213036 | 86 | 296 | 0.0 | 5.0 | 0.00 | 0.00 | 0.00 | 36 | 1011.1 |